Year,Month,Day,Hour,Minute,Value (Times are PST for temperature in C)
2023,05,14,00,00,18.60
2023,05,14,00,01,18.60
2023,05,14,00,02,18.50
2023,05,14,00,03,18.50
2023,05,14,00,04,18.40
2023,05,14,00,05,18.40
2023,05,14,00,06,18.30
2023,05,14,00,07,18.30
2023,05,14,00,08,18.30
2023,05,14,00,09,18.30
2023,05,14,00,10,18.30
2023,05,14,00,11,18.40
2023,05,14,00,12,18.40
2023,05,14,00,13,18.50
2023,05,14,00,14,18.50
2023,05,14,00,15,18.60
2023,05,14,00,16,18.60
2023,05,14,00,17,18.70
2023,05,14,00,18,18.70
2023,05,14,00,19,18.80
2023,05,14,00,20,18.80
2023,05,14,00,21,18.80
2023,05,14,00,22,18.80
2023,05,14,00,23,18.80
2023,05,14,00,24,18.80
2023,05,14,00,25,18.80
2023,05,14,00,26,18.80
2023,05,14,00,27,18.80
2023,05,14,00,28,18.80
2023,05,14,00,29,18.80
2023,05,14,00,30,18.70
2023,05,14,00,31,18.70
2023,05,14,00,32,18.60
2023,05,14,00,33,18.60
2023,05,14,00,34,18.60
2023,05,14,00,35,18.60
2023,05,14,00,36,18.60
2023,05,14,00,37,18.50
2023,05,14,00,38,18.50
2023,05,14,00,39,18.50
2023,05,14,00,40,18.40
2023,05,14,00,41,18.40
2023,05,14,00,42,18.40
2023,05,14,00,43,18.40
2023,05,14,00,44,18.40
2023,05,14,00,45,18.30
2023,05,14,00,46,18.30
2023,05,14,00,47,18.30
2023,05,14,00,48,18.30
2023,05,14,00,49,18.20
2023,05,14,00,50,18.10
2023,05,14,00,51,18.10
2023,05,14,00,52,18.00
2023,05,14,00,53,18.00
2023,05,14,00,54,17.90
2023,05,14,00,55,17.90
2023,05,14,00,56,17.90
2023,05,14,00,57,18.00
2023,05,14,00,58,18.00
2023,05,14,00,59,18.10
2023,05,14,01,00,18.10
2023,05,14,01,01,18.10
2023,05,14,01,02,18.20
2023,05,14,01,03,18.20
2023,05,14,01,04,18.20
2023,05,14,01,05,18.20
2023,05,14,01,06,18.20
2023,05,14,01,07,18.20
2023,05,14,01,08,18.30
2023,05,14,01,09,18.30
2023,05,14,01,10,18.40
2023,05,14,01,11,18.40
2023,05,14,01,12,18.40
2023,05,14,01,13,18.40
2023,05,14,01,14,18.40
2023,05,14,01,15,18.30
2023,05,14,01,16,18.30
2023,05,14,01,17,18.30
2023,05,14,01,18,18.30
2023,05,14,01,19,18.30
2023,05,14,01,20,18.30
2023,05,14,01,21,18.30
2023,05,14,01,22,18.30
2023,05,14,01,23,18.30
2023,05,14,01,24,18.40
2023,05,14,01,25,18.50
2023,05,14,01,26,18.60
2023,05,14,01,27,18.60
2023,05,14,01,28,18.60
2023,05,14,01,29,18.60
2023,05,14,01,30,18.60
2023,05,14,01,31,18.60
2023,05,14,01,32,18.60
2023,05,14,01,33,18.60
2023,05,14,01,34,18.60
2023,05,14,01,35,18.70
2023,05,14,01,36,18.70
2023,05,14,01,37,18.70
2023,05,14,01,38,18.70
2023,05,14,01,39,18.70
2023,05,14,01,40,18.70
2023,05,14,01,41,18.70
2023,05,14,01,42,18.70
2023,05,14,01,43,18.70
2023,05,14,01,44,18.70
2023,05,14,01,45,18.60
2023,05,14,01,46,18.50
2023,05,14,01,47,18.30
2023,05,14,01,48,18.10
2023,05,14,01,49,17.90
2023,05,14,01,50,17.70
2023,05,14,01,51,17.60
2023,05,14,01,52,17.40
2023,05,14,01,53,17.30
2023,05,14,01,54,17.20
2023,05,14,01,55,17.10
2023,05,14,01,56,17.00
2023,05,14,01,57,16.90
2023,05,14,01,58,16.90
2023,05,14,01,59,17.00
2023,05,14,02,00,17.00
2023,05,14,02,01,17.10
2023,05,14,02,02,17.20
2023,05,14,02,03,17.20
2023,05,14,02,04,17.30
2023,05,14,02,05,17.30
2023,05,14,02,06,17.40
2023,05,14,02,07,17.40
2023,05,14,02,08,17.50
2023,05,14,02,09,17.60
2023,05,14,02,10,17.70
2023,05,14,02,11,17.70
2023,05,14,02,12,17.80
2023,05,14,02,13,17.80
2023,05,14,02,14,17.80
2023,05,14,02,15,17.80
2023,05,14,02,16,17.80
2023,05,14,02,17,17.80
2023,05,14,02,18,17.80
2023,05,14,02,19,17.80
2023,05,14,02,20,17.80
2023,05,14,02,21,17.80
2023,05,14,02,22,17.80
2023,05,14,02,23,17.70
2023,05,14,02,24,17.70
2023,05,14,02,25,17.70
2023,05,14,02,26,17.60
2023,05,14,02,27,17.60
2023,05,14,02,28,17.60
2023,05,14,02,29,17.50
2023,05,14,02,30,17.50
2023,05,14,02,31,17.50
2023,05,14,02,32,17.50
2023,05,14,02,33,17.50
2023,05,14,02,34,17.40
2023,05,14,02,35,17.50
2023,05,14,02,36,17.50
2023,05,14,02,37,17.50
2023,05,14,02,38,17.60
2023,05,14,02,39,17.60
2023,05,14,02,40,17.60
2023,05,14,02,41,17.60
2023,05,14,02,42,17.60
2023,05,14,02,43,17.70
2023,05,14,02,44,17.70
2023,05,14,02,45,17.70
2023,05,14,02,46,17.70
2023,05,14,02,47,17.70
2023,05,14,02,48,17.70
2023,05,14,02,49,17.70
2023,05,14,02,50,17.70
2023,05,14,02,51,17.70
2023,05,14,02,52,17.70
2023,05,14,02,53,17.70
2023,05,14,02,54,17.60
2023,05,14,02,55,17.50
2023,05,14,02,56,17.40
2023,05,14,02,57,17.40
2023,05,14,02,58,17.30
2023,05,14,02,59,17.20
2023,05,14,03,00,17.20
2023,05,14,03,01,17.10
2023,05,14,03,02,17.00
2023,05,14,03,03,17.00
2023,05,14,03,04,16.90
2023,05,14,03,05,16.80
2023,05,14,03,06,16.70
2023,05,14,03,07,16.70
2023,05,14,03,08,16.60
2023,05,14,03,09,16.60
2023,05,14,03,10,16.60
2023,05,14,03,11,16.60
2023,05,14,03,12,16.70
2023,05,14,03,13,16.80
2023,05,14,03,14,16.90
2023,05,14,03,15,16.90
2023,05,14,03,16,17.00
2023,05,14,03,17,17.10
2023,05,14,03,18,17.10
2023,05,14,03,19,17.10
2023,05,14,03,20,17.10
2023,05,14,03,21,17.10
2023,05,14,03,22,17.10
2023,05,14,03,23,17.00
2023,05,14,03,24,17.00
2023,05,14,03,25,16.90
2023,05,14,03,26,16.80
2023,05,14,03,27,16.70
2023,05,14,03,28,16.60
2023,05,14,03,29,16.50
2023,05,14,03,30,16.40
2023,05,14,03,31,16.30
2023,05,14,03,32,16.20
2023,05,14,03,33,16.20
2023,05,14,03,34,16.20
2023,05,14,03,35,16.10
2023,05,14,03,36,16.10
2023,05,14,03,37,16.00
2023,05,14,03,38,16.00
2023,05,14,03,39,15.90
2023,05,14,03,40,15.90
2023,05,14,03,41,15.90
2023,05,14,03,42,15.90
2023,05,14,03,43,15.80
2023,05,14,03,44,15.80
2023,05,14,03,45,15.80
2023,05,14,03,46,15.90
2023,05,14,03,47,15.90
2023,05,14,03,48,15.90
2023,05,14,03,49,15.90
2023,05,14,03,50,15.90
2023,05,14,03,51,15.90
2023,05,14,03,52,15.90
2023,05,14,03,53,16.00
2023,05,14,03,54,16.10
2023,05,14,03,55,16.10
2023,05,14,03,56,16.20
2023,05,14,03,57,16.30
2023,05,14,03,58,16.30
2023,05,14,03,59,16.40
2023,05,14,04,00,16.50
2023,05,14,04,01,16.70
2023,05,14,04,02,16.90
2023,05,14,04,03,17.10
2023,05,14,04,04,17.20
2023,05,14,04,05,17.30
2023,05,14,04,06,17.50
2023,05,14,04,07,17.60
2023,05,14,04,08,17.60
2023,05,14,04,09,17.70
2023,05,14,04,10,17.70
2023,05,14,04,11,17.70
2023,05,14,04,12,17.70
2023,05,14,04,13,17.70
2023,05,14,04,14,17.70
2023,05,14,04,15,17.60
2023,05,14,04,16,17.60
2023,05,14,04,17,17.60
2023,05,14,04,18,17.60
2023,05,14,04,19,17.50
2023,05,14,04,20,17.50
2023,05,14,04,21,17.50
2023,05,14,04,22,17.60
2023,05,14,04,23,17.60
2023,05,14,04,24,17.60
2023,05,14,04,25,17.60
2023,05,14,04,26,17.60
2023,05,14,04,27,17.60
2023,05,14,04,28,17.60
2023,05,14,04,29,17.60
2023,05,14,04,30,17.60
2023,05,14,04,31,17.60
2023,05,14,04,32,17.70
2023,05,14,04,33,17.70
2023,05,14,04,34,17.70
2023,05,14,04,35,17.70
2023,05,14,04,36,17.70
2023,05,14,04,37,17.70
2023,05,14,04,38,17.70
2023,05,14,04,39,17.70
2023,05,14,04,40,17.70
2023,05,14,04,41,17.70
2023,05,14,04,42,17.70
2023,05,14,04,43,17.80
2023,05,14,04,44,17.80
2023,05,14,04,45,17.80
2023,05,14,04,46,17.90
2023,05,14,04,47,17.90
2023,05,14,04,48,17.90
2023,05,14,04,49,17.90
2023,05,14,04,50,17.90
2023,05,14,04,51,18.00
2023,05,14,04,52,18.00
2023,05,14,04,53,18.00
2023,05,14,04,54,18.00
2023,05,14,04,55,18.00
2023,05,14,04,56,18.10
2023,05,14,04,57,18.10
2023,05,14,04,58,18.10
2023,05,14,04,59,18.10
2023,05,14,05,00,18.20
2023,05,14,05,01,18.20
2023,05,14,05,02,18.20
2023,05,14,05,03,18.30
2023,05,14,05,04,18.30
2023,05,14,05,05,18.30
2023,05,14,05,06,18.40
2023,05,14,05,07,18.30
2023,05,14,05,08,18.30
2023,05,14,05,09,18.40
2023,05,14,05,10,18.40
2023,05,14,05,11,18.40
2023,05,14,05,12,18.40
2023,05,14,05,13,18.50
2023,05,14,05,14,18.50
2023,05,14,05,15,18.50
2023,05,14,05,16,18.40
2023,05,14,05,17,18.40
2023,05,14,05,18,18.40
2023,05,14,05,19,18.30
2023,05,14,05,20,18.30
2023,05,14,05,21,18.20
2023,05,14,05,22,18.20
2023,05,14,05,23,18.20
2023,05,14,05,24,18.20
2023,05,14,05,25,18.30
2023,05,14,05,26,18.40
2023,05,14,05,27,18.50
2023,05,14,05,28,18.60
2023,05,14,05,29,18.80
2023,05,14,05,30,18.90
2023,05,14,05,31,19.00
2023,05,14,05,32,19.20
2023,05,14,05,33,19.20
2023,05,14,05,34,19.30
2023,05,14,05,35,19.40
2023,05,14,05,36,19.40
2023,05,14,05,37,19.50
2023,05,14,05,38,19.50
2023,05,14,05,39,19.60
2023,05,14,05,40,19.60
2023,05,14,05,41,19.60
2023,05,14,05,42,19.60
2023,05,14,05,43,19.60
2023,05,14,05,44,19.60
2023,05,14,05,45,19.60
2023,05,14,05,46,19.60
2023,05,14,05,47,19.60
2023,05,14,05,48,19.60
2023,05,14,05,49,19.50
2023,05,14,05,50,19.50
2023,05,14,05,51,19.50
2023,05,14,05,52,19.50
2023,05,14,05,53,19.40
2023,05,14,05,54,19.40
2023,05,14,05,55,19.40
2023,05,14,05,56,19.40
2023,05,14,05,57,19.30
2023,05,14,05,58,19.30
2023,05,14,05,59,19.30
2023,05,14,06,00,19.20
2023,05,14,06,01,19.20
2023,05,14,06,02,19.10
2023,05,14,06,03,19.10
2023,05,14,06,04,19.00
2023,05,14,06,05,18.90
2023,05,14,06,06,18.90
2023,05,14,06,07,18.80
2023,05,14,06,08,18.80
2023,05,14,06,09,18.70
2023,05,14,06,10,18.60
2023,05,14,06,11,18.50
2023,05,14,06,12,18.40
2023,05,14,06,13,18.40
2023,05,14,06,14,18.30
2023,05,14,06,15,18.20
2023,05,14,06,16,18.20
2023,05,14,06,17,18.10
2023,05,14,06,18,18.10
2023,05,14,06,19,18.00
2023,05,14,06,20,18.00
2023,05,14,06,21,18.00
2023,05,14,06,22,18.00
2023,05,14,06,23,18.00
2023,05,14,06,24,18.00
2023,05,14,06,25,18.00
2023,05,14,06,26,18.00
2023,05,14,06,27,18.00
2023,05,14,06,28,18.00
2023,05,14,06,29,18.10
2023,05,14,06,30,18.10
2023,05,14,06,31,18.10
2023,05,14,06,32,18.10
2023,05,14,06,33,18.20
2023,05,14,06,34,18.20
2023,05,14,06,35,18.20
2023,05,14,06,36,18.20
2023,05,14,06,37,18.30
2023,05,14,06,38,18.30
2023,05,14,06,39,18.30
2023,05,14,06,40,18.30
2023,05,14,06,41,18.30
2023,05,14,06,42,18.40
2023,05,14,06,43,18.40
2023,05,14,06,44,18.40
2023,05,14,06,45,18.40
2023,05,14,06,46,18.50
2023,05,14,06,47,18.50
2023,05,14,06,48,18.50
2023,05,14,06,49,18.60
2023,05,14,06,50,18.60
2023,05,14,06,51,18.60
2023,05,14,06,52,18.70
2023,05,14,06,53,18.70
2023,05,14,06,54,18.70
2023,05,14,06,55,18.70
2023,05,14,06,56,18.80
2023,05,14,06,57,18.80
2023,05,14,06,58,18.80
2023,05,14,06,59,18.90
2023,05,14,07,00,18.90
2023,05,14,07,01,19.00
2023,05,14,07,02,19.00
2023,05,14,07,03,19.10
2023,05,14,07,04,19.10
2023,05,14,07,05,19.20
2023,05,14,07,06,19.20
2023,05,14,07,07,19.20
2023,05,14,07,08,19.20
2023,05,14,07,09,19.20
2023,05,14,07,10,19.30
2023,05,14,07,11,19.30
2023,05,14,07,12,19.30
2023,05,14,07,13,19.20
2023,05,14,07,14,19.20
2023,05,14,07,15,19.20
2023,05,14,07,16,19.30
2023,05,14,07,17,19.30
2023,05,14,07,18,19.30
2023,05,14,07,19,19.30
2023,05,14,07,20,19.30
2023,05,14,07,21,19.30
2023,05,14,07,22,19.40
2023,05,14,07,23,19.40
2023,05,14,07,24,19.40
2023,05,14,07,25,19.40
2023,05,14,07,26,19.50
2023,05,14,07,27,19.50
2023,05,14,07,28,19.50
2023,05,14,07,29,19.60
2023,05,14,07,30,19.60
2023,05,14,07,31,19.70
2023,05,14,07,32,19.70
2023,05,14,07,33,19.70
2023,05,14,07,34,19.70
2023,05,14,07,35,19.80
2023,05,14,07,36,19.80
2023,05,14,07,37,19.80
2023,05,14,07,38,19.80
2023,05,14,07,39,19.80
2023,05,14,07,40,19.80
2023,05,14,07,41,19.80
2023,05,14,07,42,19.80
2023,05,14,07,43,19.70
2023,05,14,07,44,19.70
2023,05,14,07,45,19.70
2023,05,14,07,46,19.70
2023,05,14,07,47,19.70
2023,05,14,07,48,19.70
2023,05,14,07,49,19.70
2023,05,14,07,50,19.70
2023,05,14,07,51,19.70
2023,05,14,07,52,19.70
2023,05,14,07,53,19.70
2023,05,14,07,54,19.70
2023,05,14,07,55,19.80
2023,05,14,07,56,19.80
2023,05,14,07,57,19.80
2023,05,14,07,58,19.80
2023,05,14,07,59,19.80
2023,05,14,08,00,19.90
2023,05,14,08,01,19.90
2023,05,14,08,02,19.90
2023,05,14,08,03,20.00
2023,05,14,08,04,20.00
2023,05,14,08,05,20.10
2023,05,14,08,06,20.10
2023,05,14,08,07,20.10
2023,05,14,08,08,20.20
2023,05,14,08,09,20.20
2023,05,14,08,10,20.30
2023,05,14,08,11,20.30
2023,05,14,08,12,20.30
2023,05,14,08,13,20.40
2023,05,14,08,14,20.40
2023,05,14,08,15,20.40
2023,05,14,08,16,20.50
2023,05,14,08,17,20.50
2023,05,14,08,18,20.60
2023,05,14,08,19,20.60
2023,05,14,08,20,20.60
2023,05,14,08,21,20.60
2023,05,14,08,22,20.70
2023,05,14,08,23,20.70
2023,05,14,08,24,20.70
2023,05,14,08,25,20.80
2023,05,14,08,26,20.80
2023,05,14,08,27,20.80
2023,05,14,08,28,20.90
2023,05,14,08,29,20.90
2023,05,14,08,30,20.90
2023,05,14,08,31,21.00
2023,05,14,08,32,21.10
2023,05,14,08,33,21.10
2023,05,14,08,34,21.10
2023,05,14,08,35,21.20
2023,05,14,08,36,21.20
2023,05,14,08,37,21.20
2023,05,14,08,38,21.30
2023,05,14,08,39,21.30
2023,05,14,08,40,21.30
2023,05,14,08,41,21.30
2023,05,14,08,42,21.40
2023,05,14,08,43,21.40
2023,05,14,08,44,21.40
2023,05,14,08,45,21.40
2023,05,14,08,46,21.30
2023,05,14,08,47,21.30
2023,05,14,08,48,21.30
2023,05,14,08,49,21.30
2023,05,14,08,50,21.30
2023,05,14,08,51,21.30
2023,05,14,08,52,21.30
2023,05,14,08,53,21.40
2023,05,14,08,54,21.40
2023,05,14,08,55,21.40
2023,05,14,08,56,21.40
2023,05,14,08,57,21.40
2023,05,14,08,58,21.40
2023,05,14,08,59,21.40
2023,05,14,09,00,21.40
2023,05,14,09,01,21.40
2023,05,14,09,02,21.40
2023,05,14,09,03,21.40
2023,05,14,09,04,21.50
2023,05,14,09,05,21.50
2023,05,14,09,06,21.60
2023,05,14,09,07,21.60
2023,05,14,09,08,21.60
2023,05,14,09,09,21.60
2023,05,14,09,10,21.60
2023,05,14,09,11,21.70
2023,05,14,09,12,21.70
2023,05,14,09,13,21.70
2023,05,14,09,14,21.70
2023,05,14,09,15,21.70
2023,05,14,09,16,21.70
2023,05,14,09,17,21.70
2023,05,14,09,18,21.70
2023,05,14,09,19,21.70
2023,05,14,09,20,21.70
2023,05,14,09,21,21.70
2023,05,14,09,22,21.70
2023,05,14,09,23,21.70
2023,05,14,09,24,21.70
2023,05,14,09,25,21.70
2023,05,14,09,26,21.70
2023,05,14,09,27,21.70
2023,05,14,09,28,21.70
2023,05,14,09,29,21.70
2023,05,14,09,30,21.70
2023,05,14,09,31,21.80
2023,05,14,09,32,21.80
2023,05,14,09,33,21.90
2023,05,14,09,34,21.90
2023,05,14,09,35,21.90
2023,05,14,09,36,21.90
2023,05,14,09,37,21.90
2023,05,14,09,38,21.90
2023,05,14,09,39,21.90
2023,05,14,09,40,21.90
2023,05,14,09,41,21.90
2023,05,14,09,42,21.90
2023,05,14,09,43,21.90
2023,05,14,09,44,21.90
2023,05,14,09,45,21.90
2023,05,14,09,46,21.90
2023,05,14,09,47,21.90
2023,05,14,09,48,21.90
2023,05,14,09,49,22.00
2023,05,14,09,50,22.10
2023,05,14,09,51,22.10
2023,05,14,09,52,22.20
2023,05,14,09,53,22.20
2023,05,14,09,54,22.30
2023,05,14,09,55,22.30
2023,05,14,09,56,22.30
2023,05,14,09,57,22.30
2023,05,14,09,58,22.40
2023,05,14,09,59,22.40
2023,05,14,10,00,22.40
2023,05,14,10,01,22.40
2023,05,14,10,02,22.40
2023,05,14,10,03,22.50
2023,05,14,10,04,22.50
2023,05,14,10,05,22.50
2023,05,14,10,06,22.50
2023,05,14,10,07,22.50
2023,05,14,10,08,22.50
2023,05,14,10,09,22.50
2023,05,14,10,10,22.50
2023,05,14,10,11,22.40
2023,05,14,10,12,22.40
2023,05,14,10,13,22.40
2023,05,14,10,14,22.40
2023,05,14,10,15,22.50
2023,05,14,10,16,22.50
2023,05,14,10,17,22.50
2023,05,14,10,18,22.50
2023,05,14,10,19,22.50
2023,05,14,10,20,22.50
2023,05,14,10,21,22.60
2023,05,14,10,22,22.60
2023,05,14,10,23,22.60
2023,05,14,10,24,22.70
2023,05,14,10,25,22.70
2023,05,14,10,26,22.80
2023,05,14,10,27,22.90
2023,05,14,10,28,22.90
2023,05,14,10,29,23.00
2023,05,14,10,30,23.10
2023,05,14,10,31,23.10
2023,05,14,10,32,23.10
2023,05,14,10,33,23.10
2023,05,14,10,34,23.10
2023,05,14,10,35,23.10
2023,05,14,10,36,23.10
2023,05,14,10,37,23.20
2023,05,14,10,38,23.20
2023,05,14,10,39,23.20
2023,05,14,10,40,23.30
2023,05,14,10,41,23.30
2023,05,14,10,42,23.40
2023,05,14,10,43,23.40
2023,05,14,10,44,23.50
2023,05,14,10,45,23.60
2023,05,14,10,46,23.60
2023,05,14,10,47,23.60
2023,05,14,10,48,23.60
2023,05,14,10,49,23.60
2023,05,14,10,50,23.60
2023,05,14,10,51,23.60
2023,05,14,10,52,23.60
2023,05,14,10,53,23.50
2023,05,14,10,54,23.50
2023,05,14,10,55,23.50
2023,05,14,10,56,23.50
2023,05,14,10,57,23.50
2023,05,14,10,58,23.60
2023,05,14,10,59,23.60
2023,05,14,11,00,23.60
2023,05,14,11,01,23.60
2023,05,14,11,02,23.60
2023,05,14,11,03,23.70
2023,05,14,11,04,23.70
2023,05,14,11,05,23.80
2023,05,14,11,06,23.80
2023,05,14,11,07,23.90
2023,05,14,11,08,23.90
2023,05,14,11,09,23.90
2023,05,14,11,10,23.90
2023,05,14,11,11,24.00
2023,05,14,11,12,24.10
2023,05,14,11,13,24.10
2023,05,14,11,14,24.10
2023,05,14,11,15,24.20
2023,05,14,11,16,24.30
2023,05,14,11,17,24.30
2023,05,14,11,18,24.30
2023,05,14,11,19,24.20
2023,05,14,11,20,24.20
2023,05,14,11,21,24.10
2023,05,14,11,22,24.10
2023,05,14,11,23,24.10
2023,05,14,11,24,24.10
2023,05,14,11,25,24.20
2023,05,14,11,26,24.30
2023,05,14,11,27,24.40
2023,05,14,11,28,24.40
2023,05,14,11,29,24.50
2023,05,14,11,30,24.50
2023,05,14,11,31,24.60
2023,05,14,11,32,24.60
2023,05,14,11,33,24.60
2023,05,14,11,34,24.70
2023,05,14,11,35,24.70
2023,05,14,11,36,24.70
2023,05,14,11,37,24.70
2023,05,14,11,38,24.70
2023,05,14,11,39,24.70
2023,05,14,11,40,24.70
2023,05,14,11,41,24.70
2023,05,14,11,42,24.70
2023,05,14,11,43,24.70
2023,05,14,11,44,24.80
2023,05,14,11,45,24.80
2023,05,14,11,46,24.80
2023,05,14,11,47,24.80
2023,05,14,11,48,24.80
2023,05,14,11,49,24.90
2023,05,14,11,50,25.00
2023,05,14,11,51,25.10
2023,05,14,11,52,25.30
2023,05,14,11,53,25.40
2023,05,14,11,54,25.50
2023,05,14,11,55,25.60
2023,05,14,11,56,25.70
2023,05,14,11,57,25.70
2023,05,14,11,58,25.70
2023,05,14,11,59,25.80
2023,05,14,12,00,25.80
2023,05,14,12,01,25.80
2023,05,14,12,02,25.90
2023,05,14,12,03,25.90
2023,05,14,12,04,25.90
2023,05,14,12,05,26.10
2023,05,14,12,06,26.20
2023,05,14,12,07,26.30
2023,05,14,12,08,26.30
2023,05,14,12,09,26.20
2023,05,14,12,10,26.20
2023,05,14,12,11,26.20
2023,05,14,12,12,26.20
2023,05,14,12,13,26.20
2023,05,14,12,14,26.20
2023,05,14,12,15,26.20
2023,05,14,12,16,26.30
2023,05,14,12,17,26.40
2023,05,14,12,18,26.50
2023,05,14,12,19,26.60
2023,05,14,12,20,26.70
2023,05,14,12,21,26.60
2023,05,14,12,22,26.50
2023,05,14,12,23,26.50
2023,05,14,12,24,26.40
2023,05,14,12,25,26.40
2023,05,14,12,26,26.50
2023,05,14,12,27,26.50
2023,05,14,12,28,26.60
2023,05,14,12,29,26.60
2023,05,14,12,30,26.70
2023,05,14,12,31,26.80
2023,05,14,12,32,26.80
2023,05,14,12,33,26.80
2023,05,14,12,34,26.80
2023,05,14,12,35,26.80
2023,05,14,12,36,26.70
2023,05,14,12,37,26.60
2023,05,14,12,38,26.60
2023,05,14,12,39,26.60
2023,05,14,12,40,26.60
2023,05,14,12,41,26.70
2023,05,14,12,42,26.80
2023,05,14,12,43,26.80
2023,05,14,12,44,26.90
2023,05,14,12,45,27.00
2023,05,14,12,46,27.10
2023,05,14,12,47,27.10
2023,05,14,12,48,27.10
2023,05,14,12,49,27.10
2023,05,14,12,50,27.00
2023,05,14,12,51,27.00
2023,05,14,12,52,27.00
2023,05,14,12,53,27.00
2023,05,14,12,54,27.10
2023,05,14,12,55,27.10
2023,05,14,12,56,27.10
2023,05,14,12,57,27.10
2023,05,14,12,58,27.10
2023,05,14,12,59,27.20
2023,05,14,13,00,27.20
2023,05,14,13,01,27.20
2023,05,14,13,02,27.30
2023,05,14,13,03,27.40
2023,05,14,13,04,27.40
2023,05,14,13,05,27.50
2023,05,14,13,06,27.60
2023,05,14,13,07,27.70
2023,05,14,13,08,27.80
2023,05,14,13,09,27.80
2023,05,14,13,10,27.80
2023,05,14,13,11,27.90
2023,05,14,13,12,28.00
2023,05,14,13,13,28.10
2023,05,14,13,14,28.10
2023,05,14,13,15,28.00
2023,05,14,13,16,27.90
2023,05,14,13,17,27.80
2023,05,14,13,18,27.80
2023,05,14,13,19,27.90
2023,05,14,13,20,27.90
2023,05,14,13,21,27.80
2023,05,14,13,22,27.80
2023,05,14,13,23,27.80
2023,05,14,13,24,27.80
2023,05,14,13,25,27.70
2023,05,14,13,26,27.70
2023,05,14,13,27,27.60
2023,05,14,13,28,27.40
2023,05,14,13,29,27.30
2023,05,14,13,30,27.30
2023,05,14,13,31,27.20
2023,05,14,13,32,27.20
2023,05,14,13,33,27.30
2023,05,14,13,34,27.30
2023,05,14,13,35,27.30
2023,05,14,13,36,27.30
2023,05,14,13,37,27.30
2023,05,14,13,38,27.40
2023,05,14,13,39,27.50
2023,05,14,13,40,27.60
2023,05,14,13,41,27.70
2023,05,14,13,42,27.80
2023,05,14,13,43,27.80
2023,05,14,13,44,27.90
2023,05,14,13,45,28.00
2023,05,14,13,46,28.00
2023,05,14,13,47,28.00
2023,05,14,13,48,28.00
2023,05,14,13,49,27.90
2023,05,14,13,50,27.90
2023,05,14,13,51,27.80
2023,05,14,13,52,27.70
2023,05,14,13,53,27.70
2023,05,14,13,54,27.70
2023,05,14,13,55,27.80
2023,05,14,13,56,27.80
2023,05,14,13,57,27.80
2023,05,14,13,58,27.80
2023,05,14,13,59,27.80
2023,05,14,14,00,27.90
2023,05,14,14,01,27.80
2023,05,14,14,02,27.80
2023,05,14,14,03,27.90
2023,05,14,14,04,27.90
2023,05,14,14,05,27.90
2023,05,14,14,06,28.10
2023,05,14,14,07,28.10
2023,05,14,14,08,28.20
2023,05,14,14,09,28.20
2023,05,14,14,10,28.20
2023,05,14,14,11,28.20
2023,05,14,14,12,28.20
2023,05,14,14,13,28.20
2023,05,14,14,14,28.20
2023,05,14,14,15,28.10
2023,05,14,14,16,28.10
2023,05,14,14,17,28.10
2023,05,14,14,18,28.10
2023,05,14,14,19,28.20
2023,05,14,14,20,28.30
2023,05,14,14,21,28.30
2023,05,14,14,22,28.30
2023,05,14,14,23,28.40
2023,05,14,14,24,28.40
2023,05,14,14,25,28.50
2023,05,14,14,26,28.60
2023,05,14,14,27,28.60
2023,05,14,14,28,28.60
2023,05,14,14,29,28.70
2023,05,14,14,30,28.60
2023,05,14,14,31,28.60
2023,05,14,14,32,28.60
2023,05,14,14,33,28.70
2023,05,14,14,34,28.70
2023,05,14,14,35,28.80
2023,05,14,14,36,28.90
2023,05,14,14,37,29.10
2023,05,14,14,38,29.20
2023,05,14,14,39,29.30
2023,05,14,14,40,29.30
2023,05,14,14,41,29.30
2023,05,14,14,42,29.20
2023,05,14,14,43,29.10
2023,05,14,14,44,28.90
2023,05,14,14,45,28.80
2023,05,14,14,46,28.80
2023,05,14,14,47,28.80
2023,05,14,14,48,28.80
2023,05,14,14,49,28.80
2023,05,14,14,50,28.70
2023,05,14,14,51,28.70
2023,05,14,14,52,28.70
2023,05,14,14,53,28.70
2023,05,14,14,54,28.60
2023,05,14,14,55,28.50
2023,05,14,14,56,28.40
2023,05,14,14,57,28.40
2023,05,14,14,58,28.40
2023,05,14,14,59,28.40
2023,05,14,15,00,28.30
2023,05,14,15,01,28.30
2023,05,14,15,02,28.30
2023,05,14,15,03,28.30
2023,05,14,15,04,28.30
2023,05,14,15,05,28.30
2023,05,14,15,06,28.40
2023,05,14,15,07,28.40
2023,05,14,15,08,28.50
2023,05,14,15,09,28.60
2023,05,14,15,10,28.60
2023,05,14,15,11,28.60
2023,05,14,15,12,28.60
2023,05,14,15,13,28.60
2023,05,14,15,14,28.60
2023,05,14,15,15,28.60
2023,05,14,15,16,28.60
2023,05,14,15,17,28.60
2023,05,14,15,18,28.70
2023,05,14,15,19,28.80
2023,05,14,15,20,28.90
2023,05,14,15,21,29.00
2023,05,14,15,22,29.10
2023,05,14,15,23,29.20
2023,05,14,15,24,29.20
2023,05,14,15,25,29.30
2023,05,14,15,26,29.30
2023,05,14,15,27,29.40
2023,05,14,15,28,29.60
2023,05,14,15,29,29.70
2023,05,14,15,30,29.80
2023,05,14,15,31,29.90
2023,05,14,15,32,29.90
2023,05,14,15,33,29.90
2023,05,14,15,34,29.80
2023,05,14,15,35,29.70
2023,05,14,15,36,29.70
2023,05,14,15,37,29.70
2023,05,14,15,38,29.70
2023,05,14,15,39,29.80
2023,05,14,15,40,29.90
2023,05,14,15,41,30.00
2023,05,14,15,42,30.10
2023,05,14,15,43,30.20
2023,05,14,15,44,30.20
2023,05,14,15,45,30.30
2023,05,14,15,46,30.30
2023,05,14,15,47,30.30
2023,05,14,15,48,30.30
2023,05,14,15,49,30.30
2023,05,14,15,50,30.30
2023,05,14,15,51,30.30
2023,05,14,15,52,30.30
2023,05,14,15,53,30.30
2023,05,14,15,54,30.30
2023,05,14,15,55,30.30
2023,05,14,15,56,30.30
2023,05,14,15,57,30.20
2023,05,14,15,58,30.30
2023,05,14,15,59,30.30
2023,05,14,16,00,30.30
2023,05,14,16,01,30.20
2023,05,14,16,02,30.20
2023,05,14,16,03,30.20
2023,05,14,16,04,30.30
2023,05,14,16,05,30.30
2023,05,14,16,06,30.30
2023,05,14,16,07,30.40
2023,05,14,16,08,30.40
2023,05,14,16,09,30.50
2023,05,14,17,04,30.70
2023,05,14,17,05,30.70
2023,05,14,17,06,30.70
2023,05,14,17,07,30.70
2023,05,14,17,08,30.70
2023,05,14,17,09,30.70
2023,05,14,17,10,30.80
2023,05,14,17,11,30.80
2023,05,14,17,12,30.80
2023,05,14,17,13,30.90
2023,05,14,17,14,30.90
2023,05,14,17,15,30.80
2023,05,14,17,16,30.90
2023,05,14,17,17,30.90
2023,05,14,17,18,31.00
2023,05,14,17,19,31.00
2023,05,14,17,20,31.00
2023,05,14,17,21,31.00
2023,05,14,17,22,31.10
2023,05,14,17,23,31.10
2023,05,14,17,24,31.10
2023,05,14,17,25,31.10
2023,05,14,17,26,31.10
2023,05,14,17,27,31.20
2023,05,14,17,28,31.10
2023,05,14,17,29,31.10
2023,05,14,17,30,31.00
2023,05,14,17,31,31.00
2023,05,14,17,32,30.90
2023,05,14,17,33,30.90
2023,05,14,17,34,30.90
2023,05,14,17,35,30.90
2023,05,14,17,36,30.90
2023,05,14,17,37,30.90
2023,05,14,17,38,30.90
2023,05,14,17,39,30.90
2023,05,14,17,40,30.90
2023,05,14,17,41,30.90
2023,05,14,17,42,30.90
2023,05,14,17,43,30.90
2023,05,14,17,44,31.00
2023,05,14,17,45,31.10
2023,05,14,17,46,31.20
2023,05,14,17,47,31.30
2023,05,14,17,48,31.30
2023,05,14,17,49,31.30
2023,05,14,17,50,31.20
2023,05,14,17,51,31.20
2023,05,14,17,52,31.10
2023,05,14,17,53,31.10
2023,05,14,17,54,31.00
2023,05,14,17,55,31.00
2023,05,14,17,56,31.00
2023,05,14,17,57,30.90
2023,05,14,17,58,30.90
2023,05,14,17,59,31.00
2023,05,14,18,00,31.10
2023,05,14,18,01,31.10
2023,05,14,18,02,31.10
2023,05,14,18,03,31.10
2023,05,14,18,04,31.10
2023,05,14,18,05,31.10
2023,05,14,18,06,31.10
2023,05,14,18,07,31.00
2023,05,14,18,08,30.90
2023,05,14,18,09,30.90
2023,05,14,18,10,30.80
2023,05,14,18,11,30.80
2023,05,14,18,12,30.80
2023,05,14,18,13,30.70